Location: B�rgermoos
(47.6500°N, 9.0667°E)
Time: 17:06:23
(UTC+00:00)

Vanguard 1 - Pass Details

Date: 10 August 2021
Orbit: 652 x 3831 km, 34.3° (Epoch: 17 September)

Event Time Altitude Azimuth Distance (km) Brightness Sun altitude
Rises 11:39:36 0° 249° (WSW) 3,075 12.8 57.7°
Reaches altitude 10° 11:42:53 10° 222° (SW) 2,368 12.6 57.6°
Maximum altitude 11:45:36 14° 192° (SSW) 2,336 12.8 57.6°
Drops below altitude 10° 11:48:50 10° 162° (SSE) 2,944 13.1 57.5°
Sets 11:53:57 0° 140° (SE) 4,518 13.7 57.4°
